USA 283

Last updated on Sat Jun 20 2026 00:03:06 GMT+0000 (Coordinated Universal Time)

1 43339U 18036A 26170.53794801 .00000000 00000+0 00000+0 0 9991 2 43339 0.0091 53.6723 0000086 77.7836 104.0737 1.00268506 25313
UTC large
Height (km)
Speed (km/s)
/
Latitude / Longitude
Inclination (degrees)
Orbital Period (minutes)
Azimuth
Elevation
Range (km)
Doppler Factor

Next 0 passes for location: London (51.5072 / 0.1276)

No passes found over London.
USA 283